This is the latest recevied weather packets stored in our database for station/object DO1YM-13. If no packets are shown the sender has not sent any weather packets the latest 10 day(s).
| Time | Temp. | Humidity | Pressure | Rain* | Wind** | Luminosity | Snow |
|---|---|---|---|---|---|---|---|
| 1787374548 | 14.44° C | 99% | 1005.1 hPa | 1.78 mm | - | 10 W/m² | - |
| 1787374247 | 14.44° C | 99% | 1005.4 hPa | 2.29 mm | - | 18 W/m² | - |
| 1787373947 | 14.44° C | 99% | 1005.1 hPa | 2.54 mm | - | 9 W/m² | - |
| 1787373650 | 14.44° C | 99% | 1005.4 hPa | 2.54 mm | - | 7 W/m² | - |
| 1787373347 | 14.44° C | 99% | 1005.4 hPa | 2.54 mm | - | 7 W/m² | - |
| 1787373047 | 14.44° C | 99% | 1005.1 hPa | 2.54 mm | - | 5 W/m² | - |
| 1787372747 | 14.44° C | 99% | 1005.1 hPa | 2.54 mm | - | 4 W/m² | - |
| 1787372448 | 14.44° C | 99% | 1005.1 hPa | 2.54 mm | - | 2 W/m² | - |
| 1787372148 | 14.44° C | 99% | 1005.1 hPa | 2.54 mm | - | 2 W/m² | - |
| 1787371848 | 14.44° C | 99% | 1005.1 hPa | 2.54 mm | - | 1 W/m² | - |
| 1787371547 | 14.44° C | 99% | 1005.1 hPa | 2.29 mm | - | 1 W/m² | - |
| 1787371247 | 14.44° C | 99% | 1004.7 hPa | 1.78 mm | - | 0 W/m² | - |
| 1787370947 | 14.44° C | 98% | 1004.7 hPa | 0.76 mm | - | 0 W/m² | - |
| 1787370648 | 14.44° C | 97% | 1005.1 hPa | 0 mm | - | 0 W/m² | - |
| 1787370348 | 14.44° C | 97% | 1005.1 hPa | 0 mm | - | 0 W/m² | - |
| 1787370047 | 14.44° C | 97% | 1005.1 hPa | 0 mm | - | 0 W/m² | - |
| 1787369747 | 14.44° C | 97% | 1004.7 hPa | 0 mm | - | 0 W/m² | - |
| 1787369447 | 14.44° C | 97% | 1004.7 hPa | 0 mm | - | 0 W/m² | - |
| 1787369148 | 14.44° C | 98% | 1004.7 hPa | 0 mm | - | 0 W/m² | - |
| 1787368847 | 14.44° C | 98% | 1004.7 hPa | 0 mm | - | 0 W/m² | - |
| 1787368547 | 14.44° C | 98% | 1004.7 hPa | 0 mm | - | 0 W/m² | - |
| 1787368249 | 14.44° C | 98% | 1004.4 hPa | 0 mm | - | 0 W/m² | - |
| 1787367948 | 14.44° C | 98% | 1004.4 hPa | 0 mm | - | 0 W/m² | - |
| 1787367647 | 14.44° C | 98% | 1004.4 hPa | 0 mm | - | 0 W/m² | - |
| 1787367347 | 14.44° C | 98% | 1004.4 hPa | 0 mm | - | 0 W/m² | - |
* Rain latest hour (hover to see other rain measurements)
** Current wind speed in m/s (hover to see current wind gust speed)